Find Starlink 35095

NORAD ID: 65425 Int'l Des: 2025-192 Owner: SPXS Country: US Constellation: starlink operational
LEOCIRCULAR

Live Position

Loading 3D Globe...

About Starlink 35095

Description loading...

Upcoming Passes

Passes for default location (London). Set your location on the main map for personalized predictions.

Altitude History

Loading altitude history...

Two-Line Element Set

1 65425U 25192X 26105.29757585 .00006796 00000-0 24171-3 0 9999
2 65425 53.1586 62.6911 0000950 93.9979 266.1130 15.30155193 34983
Epoch: Apr 15, 2026 • Age: 17 hours

Current Status

Altitude 476.7 km
Velocity 7.63 km/s
Sub-Earth Point -2.68°S, 152.37°W
Launch Date Aug 31, 2025
Age 0.6 years
Type internet

Technical Details

Classification Payload
Mass 575.00 kg
Dry Mass 530.00 kg
Total Mass 575.00 kg
Length 0.30 m
Diameter 4.10 m
Span 29.00 m
Shape Box + pan
Manufacturer SPXS
Bus Type Starlink V2MO
Phase Status In Orbit
Owner/State SPXS/US

Most Searched